Miscellaneous Local Product
Issued by NWS Hastings, NE

Home | Current Version | Previous Version | Text Only | Print | Product List | Glossary Off
Versions: 1 2 3 4 5 6 7 8 9 10 11 12 13 14 15 16 17 18 19 20 21 22 23 24 25 26 27 28 29 30 31 32 33 34 35 36 37 38 39 40 41 42 43 44 45 46 47 48 49 50

000
AXUS43 KGID 060802
MISGRI

GID CWA HOURLY WEATHER ROUNDUP
NATIONAL WEATHER SERVICE HASTINGS NE
200 AM CST TUE DEC 06 2016

NOTE: "FAIR" INDICATES FEW OR NO CLOUDS BELOW 12,000 FEET WITH NO
SIGNIFICANT WEATHER AND/OR OBSTRUCTIONS TO VISIBILITY.

...SOUTH CENTRAL NEBRASKA...

CITY           SKY/WX    TMP DP  RH WIND       PRES   REMARKS
GRAND ISLAND   CLOUDY    27  15  61 NW17      29.95S WCI  14
HASTINGS       CLOUDY    28  16  60 N18       29.95R WCI  15
KEARNEY        CLOUDY    27  12  54 NW10      29.95S WCI  17
ORD            PTCLDY    23   9  55 NW20G30   29.95R WCI   8
YORK           CLOUDY    28  16  59 N16G25    29.94R WCI  17
AURORA         CLOUDY    28  14  55 NW18      29.95R WCI  15
LEXINGTON      MOCLDY    25  17  71 NW8       29.97R WCI  16
HOLDREGE       PTCLDY    25  14  64 NW10      29.96R WCI  15
HEBRON         CLOUDY    31  19  62 N10G24    29.93F WCI  22

...NEBRASKA PANHANDLE...

CITY           SKY/WX    TMP DP  RH WIND       PRES   REMARKS
CHADRON        CLEAR     15   5  64 W14       30.00R WCI   0
ALLIANCE       CLEAR     14   4  64 NW18G26   29.93R WCI  -3
SCOTTSBLUFF    CLEAR     13   3  64 NW10      29.98S WCI   0
SIDNEY         CLEAR     14   4  64 NW15      29.97S WCI  -1

...WESTERN AND NORTH CENTRAL NEBRASKA...

CITY           SKY/WX    TMP DP  RH WIND       PRES   REMARKS
VALENTINE      CLEAR     15   7  70 W17       29.93S WCI  -1
AINSWORTH      CLEAR     17  10  74 W13       29.94R WCI   3
ONEILL         CLEAR     20  11  67 NW14G22   29.92R WCI   7
BROKEN BOW     PTCLDY    22  14  71 NW12      29.94S WCI  10
IMPERIAL       CLEAR     19   9  65 NW9       29.99S WCI   8
NORTH PLATTE   PTCLDY    22  12  65 W16       29.97R WCI   8
MCCOOK         CLEAR     22  11  62 NW12      29.99R WCI  10

...EASTERN NEBRASKA...

CITY           SKY/WX    TMP DP  RH WIND       PRES   REMARKS
NORFOLK        CLOUDY    25  12  58 NW18G29   29.91R WCI  11
SO SIOUX CITY  CLOUDY    28  16  60 NW20G32   29.88R WCI  15
TEKAMAH        CLOUDY    30  19  63 NW23G31   29.92R WCI  17
COLUMBUS       MOCLDY    28  16  59 NW17      29.94R WCI  16
ALBION         CLOUDY    24  11  56 NW15      29.93R WCI  12
OMAHA EPPLEY   CLOUDY    31  22  69 NW22      29.92R WCI  18
OFFUTT AFB     MIX PCPN  32  25  74 NW16G26   29.92R WCI  21
MILLARD        CLOUDY    32  23  68 NW9G18    29.93R WCI  24
LINCOLN        CLOUDY    32  18  56 NW20G30   29.94R WCI  20
NEBRASKA CITY  CLOUDY    32  22  67 N16G28    29.90R WCI  21
BEATRICE       CLOUDY    32  23  69 N18       29.93R WCI  20
FALLS CITY     CLOUDY    35  28  75 NW21G29   29.87R WCI  24

...NORTHERN KANSAS...

CITY           SKY/WX    TMP DP  RH WIND       PRES   REMARKS
GOODLAND       CLEAR     17   8  67 N13       29.97R WCI   4
HILL CITY      CLEAR     25  16  68 N9        29.98R WCI  15
NORTON         SUNNY     21  10  63 NW9       29.97R WCI  11
PHILLIPSBURG   CLEAR     28  18  64 NW10      29.99R WCI  19
SMITH CENTER   CLOUDY    28  18  64 NW22      29.99R WCI  15
BELOIT         CLOUDY    32  19  59 NW17G24   29.94R WCI  21
HAYS           CLEAR     29  18  63 N21       29.95R WCI  16
RUSSELL        CLOUDY    31  19  61 N20G26    29.94R WCI  19
CONCORDIA      CLOUDY    31  19  61 N22G30    29.94R WCI  18
SALINA         PTCLDY    34  22  61 N22G32    29.93R WCI  22
TOPEKA         CLOUDY    40  35  83 NW18G24   29.84R WCI  31



USA.gov is the U.S. government's official web portal to all federal, state and local government web resources and services.